User: anonymous   Login
Location: San Antonio
(29.4240°N, 98.4930°W)
Time: 10:00:01
(UTC-05:00)
Language:

Tiros 1 - Orbit

View from above orbital plane
View from above orbital plane
View from above satellite
View from above satellite

Ground track
Ground track

The orbit data is extracted from the following two-line orbital elements,

1    29U 60002B   24196.47595445  .00001430  00000-0  23237-3 0  9992
2    29  48.3788 119.6592 0022911 125.3891 234.9166 14.76473820438309
Epoch (UTC): 14 July 2024 11:25:22
Eccentricity: 0.0022911
inclination: 48.3788°
perigee height: 624 km
apogee height: 656 km
right ascension of ascending node: 119.6592°
argument of perigee: 125.3891°
revolutions per day: 14.76473820
mean anomaly at epoch: 234.9166°
orbit number at epoch: 43830

The dashed part of the orbit path shows where the satellite is in the earth's shadow,  

DLR